Home > Weather > Lage > Past weeks

Flag for Germany Weather for the Past 2 Weeks in Lage, North Rhine-Westphalia, Germany

Now
46 °F

Partly cloudy.


Feels Like: 37 °F
Forecast: 35 / 41 °F
Wind: 28 mph from West

Location: Bueckeburg

Current Time: Feb 9, 2016 at 5:33:37 AM

Latest Report: Feb 9, 2016 at 4:20 AM


Visibility: N/A

Pressure: 29.33 "Hg

Humidity: 66%

Dew point: 36 °F

Location of LageLocation

Historic Weather in Lage — Graph

°F

Lage Temperature Yesterday

Maximum temperature yesterday: 50 °F (at 2:20 PM)
Minimum temperature yesterday: 43 °F (at 2:20 AM)
Average temperature yesterday: 46 °F

High & Low Weather Summary for the Past Weeks

 TemperatureHumidityPressure
High54 °F (Jan 25, 1:20 PM)100% (Jan 25, 3:55 AM)30.30 "Hg (Jan 25, 3:55 AM)
Low36 °F (Jan 30, 9:20 PM)57% (Jan 28, 1:20 PM)29.18 "Hg (Feb 8, 1:20 PM)
Average46 °F81%29.89 "Hg
* Reported Jan 25 3:55 AM — Feb 9 3:20 AM, Lage, Weather by CustomWeather, © 2016

Note: Actual official high and low records may vary slightly from our data, if they occured in-between our weather recording intervals... More about our weather records

Advertising

Lage Weather History for the Previous 24 Hours

 ConditionsComfort  
Time TempWeatherWind HumidityBarometerVisibility
3:20 AM
Tue, Feb 9
45 °FPassing clouds.30 mph76%29.33 "HgN/A
2:20 AM46 °FLight rain. Passing clouds.29 mph71%29.30 "HgN/A
1:20 AM45 °FLight rain. Passing clouds.33 mph81%29.27 "HgN/A
12:20 AM45 °FLight rain. Passing clouds.28 mph81%29.27 "HgN/A
11:20 PM
Mon, Feb 8
45 °FPassing clouds.30 mph81%29.24 "HgN/A
10:20 PM45 °FPartly cloudy.30 mph81%29.24 "HgN/A
9:20 PM45 °FPartly cloudy.28 mph76%29.24 "HgN/A
8:20 PM45 °FSprinkles. Passing clouds.33 mph76%29.24 "Hg6 mi
7:20 PM46 °FPassing clouds.25 mph66%29.21 "HgN/A
6:20 PM46 °FPassing clouds.24 mph66%29.21 "HgN/A
5:20 PM46 °FPartly sunny.25 mph71%29.21 "HgN/A
4:20 PM46 °FScattered clouds.23 mph76%29.21 "HgN/A
3:20 PM45 °FScattered clouds.23 mph81%29.21 "HgN/A
2:20 PM50 °FBroken clouds.26 mph67%29.18 "HgN/A
1:20 PM48 °FPartly sunny.26 mph76%29.18 "HgN/A
12:20 PM48 °FPartly sunny.26 mph76%29.21 "HgN/A
11:20 AM46 °FBroken clouds.26 mph82%29.21 "HgN/A
10:20 AM48 °FRain. Broken clouds.32 mph76%29.21 "HgN/A
9:20 AM45 °FLight rain. Broken clouds.26 mph87%29.24 "HgN/A
8:20 AM45 °FRain. Partly sunny.26 mph87%29.24 "HgN/A
7:20 AM45 °FRain. Passing clouds.25 mph81%29.27 "HgN/A
6:20 AM46 °FPassing clouds.25 mph66%29.30 "HgN/A
5:20 AM45 °FPassing clouds.24 mph71%29.30 "HgN/A
Weather by CustomWeather, © 2016

See weather overviewHow to use our weather pages